Pagosa Springs, CO

9:38 AM MDT on September 22, 2017 (GMT -0600)
Pagosa Springs

Weather History for KPSO - July, 2013

Change the Weather History Date:

Saturday, July 20, 2013

  Actual Average (KE33) Record (KE33)
Temperature  
Mean Temperature 68 °F -  
Max Temperature 83 °F 73 °F 87 °F (2005)
Min Temperature 53 °F 54 °F 50 °F (2002)
Cooling Degree Days 3    
Growing Degree Days 18 (Base 50)    
Moisture  
Dew Point 47 °F    
Average Humidity 51    
Maximum Humidity 91    
Minimum Humidity 19    
Precipitation  
Precipitation 0.00 in - - ()
Sea Level Pressure  
Sea Level Pressure 30.26 in    
Wind  
Wind Speed 3 mph (SW)    
Max Wind Speed 12 mph    
Max Gust Speed 18 mph    
Visibility 10 miles    
Events Rain , Thunderstorm    
Averages and records for this station are not official NWS values.
T = Trace of Precipitation, MM = Missing Value Source: NWS Daily Summary

Daily Weather History Graph

Daily Weather History Graph

Search for Another Location

Airport or City:

Trip Planner

Search our weather history database for the weather conditions in past years. The results will help you decide how hot, cold, wet, or windy it might be!

Date:

Astronomy

Jul. 20, 2013 Rise Set
Actual Time 6:03 AM MDT 8:25 PM MDT
Civil Twilight 5:33 AM MDT 8:55 PM MDT
Nautical Twilight 4:56 AM MDT 9:31 PM MDT
Astronomical Twilight 4:16 AM MDT 10:11 PM MDT
Moon 6:31 PM MDT (7/20) 3:46 AM MDT (7/20)
Length of Visible Light 15h 21m
Length of Day
14h 21m
Waxing Gibbous, 94% of the Moon is Illuminated
Jul 20
Waxing Gibbous
Jul 22
Full
Jul 29
Last Quarter
Aug 6
New
Aug 14
First Quarter

Hourly Weather History & Observations

Time (MDT) Temp. Dew Point Humidity Pressure Visibility Wind Dir Wind Speed Gust Speed Precip Events Conditions
12:15 AM 61.7 °F 50.9 °F 68% 30.34 in 10.0 mi NW 3.5 mph - N/A   Scattered Clouds
12:35 AM 61.2 °F 50.9 °F 69% 30.34 in 10.0 mi NW 3.5 mph - N/A   Scattered Clouds
12:55 AM 61.7 °F 50.9 °F 68% 30.34 in 10.0 mi Calm Calm - N/A   Clear
1:15 AM 61.3 °F 51.8 °F 71% 30.34 in 10.0 mi Calm Calm - N/A   Mostly Cloudy
1:35 AM 60.8 °F 52.5 °F 74% 30.34 in 10.0 mi Calm Calm - N/A   Overcast
1:55 AM 61.3 °F 51.1 °F 69% 30.33 in 10.0 mi Calm Calm - N/A   Overcast
2:15 AM 60.8 °F 51.8 °F 72% 30.33 in 10.0 mi SE 3.5 mph - N/A   Mostly Cloudy
2:35 AM 60.1 °F 51.6 °F 74% 30.32 in 10.0 mi Calm Calm - N/A   Scattered Clouds
2:55 AM 60.3 °F 50.7 °F 71% 30.32 in 10.0 mi WNW 3.5 mph - N/A   Clear
3:15 AM 59.0 °F 52.0 °F 78% 30.32 in 10.0 mi Calm Calm - N/A   Clear
3:35 AM 59.0 °F 51.8 °F 77% 30.31 in 10.0 mi Calm Calm - N/A   Scattered Clouds
3:55 AM 59.2 °F 51.8 °F 77% 30.31 in 10.0 mi Calm Calm - N/A   Mostly Cloudy
4:15 AM 58.5 °F 52.0 °F 79% 30.31 in 10.0 mi Calm Calm - N/A   Scattered Clouds
4:35 AM 58.3 °F 50.9 °F 76% 30.31 in 10.0 mi Calm Calm - N/A   Clear
4:55 AM 58.1 °F 50.7 °F 76% 30.30 in 10.0 mi Calm Calm - N/A   Clear
5:15 AM 56.8 °F 50.9 °F 80% 30.30 in 10.0 mi Calm Calm - N/A   Clear
5:35 AM 55.6 °F 50.4 °F 83% 30.30 in 10.0 mi Calm Calm - N/A   Scattered Clouds
5:55 AM 56.5 °F 50.5 °F 80% 30.30 in 10.0 mi Calm Calm - N/A   Clear
6:15 AM 54.5 °F 51.4 °F 89% 30.31 in 10.0 mi Calm Calm - N/A Thunderstorm Thunderstorm
6:35 AM 53.8 °F 51.1 °F 91% 30.31 in 10.0 mi Calm Calm - N/A   Clear
6:55 AM 55.2 °F 52.2 °F 89% 30.31 in 10.0 mi Calm Calm - N/A   Clear
7:15 AM 57.6 °F 50.4 °F 77% 30.31 in 10.0 mi Calm Calm - N/A   Clear
7:35 AM 59.5 °F 49.5 °F 69% 30.31 in 10.0 mi Calm Calm - N/A   Clear
7:55 AM 60.1 °F 49.8 °F 69% 30.31 in 10.0 mi Calm Calm - N/A   Clear
8:15 AM 61.7 °F 50.0 °F 65% 30.31 in 10.0 mi Calm Calm - N/A   Clear
8:35 AM 63.0 °F 50.4 °F 63% 30.31 in 10.0 mi Calm Calm - N/A   Clear
8:55 AM 64.6 °F 50.2 °F 60% 30.31 in 10.0 mi Calm Calm - N/A   Clear
9:15 AM 66.6 °F 50.7 °F 57% 30.30 in 10.0 mi Calm Calm - N/A   Clear
9:35 AM 66.7 °F 49.1 °F 53% 30.30 in 10.0 mi Calm Calm - N/A   Clear
9:55 AM 68.7 °F 48.6 °F 49% 30.29 in 10.0 mi WSW 3.5 mph - N/A Thunderstorm Thunderstorm
10:15 AM 70.5 °F 47.5 °F 44% 30.29 in 10.0 mi South 4.6 mph - N/A   Clear
10:35 AM 71.4 °F 45.1 °F 39% 30.29 in 10.0 mi SSW 4.6 mph - N/A   Clear
10:55 AM 72.0 °F 44.2 °F 37% 30.28 in 10.0 mi SSW 4.6 mph - N/A   Clear
11:15 AM 73.2 °F 43.7 °F 35% 30.28 in 10.0 mi South 8.1 mph - N/A   Clear
11:35 AM 74.5 °F 43.5 °F 33% 30.28 in 10.0 mi SW 5.8 mph - N/A   Clear
11:55 AM 75.6 °F 44.2 °F 33% 30.26 in 10.0 mi WSW 6.9 mph - N/A   Clear
12:15 PM 76.6 °F 44.2 °F 32% 30.26 in 10.0 mi SW 3.5 mph - N/A   Clear
12:35 PM 77.5 °F 43.9 °F 30% 30.24 in 10.0 mi SW 5.8 mph - N/A   Clear
12:55 PM 78.6 °F 44.2 °F 30% 30.24 in 10.0 mi SSW 9.2 mph - N/A   Clear
1:15 PM 79.7 °F 42.6 °F 27% 30.23 in 10.0 mi SSW 3.5 mph - N/A   Clear
1:35 PM 80.1 °F 42.8 °F 27% 30.21 in 10.0 mi West 8.1 mph - N/A   Clear
1:55 PM 81.9 °F 42.4 °F 25% 30.20 in 10.0 mi NW 4.6 mph - N/A Thunderstorm Clear
2:15 PM 83.7 °F 36.5 °F 19% 30.19 in 10.0 mi North 4.6 mph - N/A Thunderstorm Clear
2:35 PM 81.5 °F 36.7 °F 20% 30.19 in 10.0 mi Calm Calm - N/A   Scattered Clouds
2:55 PM 81.7 °F 37.6 °F 21% 30.19 in 10.0 mi SSE 10.4 mph - N/A Thunderstorm Thunderstorm
3:15 PM 78.3 °F 43.3 °F 29% 30.18 in 10.0 mi SE 9.2 mph - N/A   Clear
3:35 PM 79.0 °F 40.8 °F 26% 30.19 in 10.0 mi South 9.2 mph - N/A Thunderstorm Thunderstorm
3:55 PM 79.2 °F 41.4 °F 26% 30.18 in 10.0 mi WSW 11.5 mph 18.4 mph N/A   Scattered Clouds
4:15 PM 76.1 °F 41.9 °F 29% 30.19 in 10.0 mi West 11.5 mph - N/A Thunderstorm Thunderstorm
4:35 PM 75.9 °F 41.4 °F 29% 30.18 in 10.0 mi WSW 10.4 mph - N/A Thunderstorm Thunderstorm
4:55 PM 75.0 °F 43.3 °F 32% 30.19 in 10.0 mi SW 8.1 mph - N/A   Clear
5:15 PM 74.3 °F 41.9 °F 31% 30.19 in 10.0 mi SW 6.9 mph - N/A   Clear
5:35 PM 75.0 °F 41.7 °F 30% 30.19 in 10.0 mi WSW 8.1 mph - N/A   Clear
5:55 PM 74.5 °F 41.0 °F 30% 30.19 in 10.0 mi SW 6.9 mph - N/A   Clear
6:15 PM 74.3 °F 41.9 °F 31% 30.18 in 10.0 mi SW 6.9 mph - N/A Thunderstorm Clear
6:35 PM 74.1 °F 42.1 °F 32% 30.19 in 10.0 mi SSW 10.4 mph - N/A   Clear
6:55 PM 73.4 °F 43.5 °F 34% 30.19 in 10.0 mi SW 6.9 mph - N/A   Clear
7:15 PM 72.9 °F 44.8 °F 37% 30.19 in 10.0 mi WSW 3.5 mph - N/A   Clear
7:35 PM 72.0 °F 43.7 °F 36% 30.20 in 10.0 mi SW 3.5 mph - N/A   Clear
7:55 PM 72.0 °F 44.2 °F 37% 30.21 in 10.0 mi Calm Calm - N/A   Scattered Clouds
8:15 PM 70.2 °F 46.0 °F 42% 30.21 in 10.0 mi Calm Calm - N/A Thunderstorm Mostly Cloudy
8:35 PM 69.1 °F 46.9 °F 45% 30.23 in 10.0 mi NNE 8.1 mph - N/A   Mostly Cloudy
8:55 PM 70.2 °F 41.7 °F 36% 30.24 in 10.0 mi ENE 9.2 mph - N/A   Mostly Cloudy
9:15 PM 69.1 °F 44.1 °F 40% 30.24 in 10.0 mi NE 5.8 mph - N/A Rain Light Rain
9:35 PM 69.3 °F 43.7 °F 40% 30.25 in 10.0 mi ESE 5.8 mph - N/A Rain Rain
9:55 PM 67.1 °F 48.7 °F 52% 30.26 in 10.0 mi East 6.9 mph - N/A   Light Drizzle
10:15 PM 64.4 °F 48.0 °F 55% 30.26 in 10.0 mi Calm Calm - N/A   Mostly Cloudy
10:35 PM 63.5 °F 48.2 °F 57% 30.27 in 10.0 mi NNE 4.6 mph - N/A   Mostly Cloudy
10:55 PM 63.3 °F 47.8 °F 57% 30.27 in 10.0 mi Calm Calm - N/A   Overcast
11:15 PM 62.2 °F 47.8 °F 59% 30.27 in 10.0 mi Calm Calm - N/A   Scattered Clouds
11:35 PM 59.7 °F 48.0 °F 65% 30.27 in 10.0 mi NE 3.5 mph - N/A   Clear
11:55 PM 59.9 °F 48.2 °F 65% 30.27 in 10.0 mi NE 3.5 mph - N/A   Clear